Location: Grossmotten
(48.5500°N, 15.3833°E)
Time: 15:47:35
(UTC+00:00)

ATLAS CENTAUR R/B - Pass Details

Date: 15 November 2019
Orbit: 457 x 691 km, 64.7° (Epoch: 30 November)

Event Time Altitude Azimuth Distance (km) Brightness Sun altitude
Rises 04:43:00 0° 197° (SSW) 3,050 5.1 -13.7°
Reaches altitude 10° 04:45:25 10° 190° (S) 2,137 4.4 -13.3°
Maximum altitude 04:50:02 42° 120° (ESE) 966 3.1 -12.6°
Drops below altitude 10° 04:54:33 10° 50° (NE) 2,095 4.8 -11.8°
Sets 04:56:55 0° 44° (NE) 2,984 5.5 -11.4°
